NOAA 16 DEB, 41667

Orbit data source: Space-Track

NOAA 16 DEB, 41667 is space debris in SSO originally from a launch on Thu, 21 Sep 2000 UTC launched from the Air Force Western Test Range (AFWTR). Debris objects in space refer to the collection of defunct objects orbiting the Earth. Examples of debris include non-operational satellites, rocket bodies, and fragments generated from explosions, collisions, or faulty payload assembly.

Loading next visibility...
Identifier
41667, 2000-055PG
Orbit
SSO
Country
Flag of USUS
Related business
Manufacturer
Unknown
Mission
Spacecraft
Bus & Motor
Unknown
Mass
Unknown
Launch date (UTC)
2000-09-21 (26 years ago)
Launch vehicle
Unknown
Launch site
Air Force Western Test Range (AFWTR)
Object type
Payload
Rocket body
Debris
Shape & HBR
Unknown shape, 0.1 m
Radar Cross Section
Small (<0.1 m²)

Expand to show TLE details & history
Last TLE update: 5 days ago

TLE from 5 days ago
0 NOAA 16 DEB
1 41667U 00055PG  26122.02810070  .00001195  00000-0  52141-3 0  9997
2 41667  98.7715 227.3241 0027998 309.3704  50.4996 14.25593807521549
Epoch: 2026-05-02T00:40Z
TLE epoch observation values (Epoch: 2026-05-02T00:40:27.900Z)
Latitude
0.00003°
Longitude
-2.74404°
Altitude
796.653 km
Speed
7.462 km/s
True Right ascension
15h 09m 17s
True Declination
0° 00' 00"
Sunlit
Object was in full shadow at epoch
Visualization orbit readout
Latitude
Unknown
Longitude
Unknown
Altitude
Unknown
Speed
Unknown
Apparent Right ascension
Unknown
Apparent Declination
Unknown
Sunlit
N/A
Visualization observer readout
Local Sidereal Time
15:45:23
Azimuth
Unknown
Elevation
Unknown
Doppler factor
Unknown
Orbital elements
Apogee altitude
823.759 km
Perigee altitude
783.543 km
Semi-major axis
7,181.788 km
Eccentricity
0.0028
Inclination
98.7715°
RAAN
227.3241°
Arg. of periapsis
309.3704°
True anomaly
50.74771°
Mean anomaly
50.4996°
Eccentric anomaly
50.6236°
Mean motion
3.56611 °/min
Orbital period
100.95 mins
BSTAR
0.00052141
Loading maneuver chart data...
Computing Atmospheric mass density...

Documentation

Showing up to 5 results
|